Location: Ferchesar
(52.6477°N, 12.4298°E)
Time: 16:12:56
(UTC+01:00)

Vanguard 3 - Pass Details

Date: 03 December 2021
Orbit: 508 x 3260 km, 33.3° (Epoch: 25 January)

Event Time Altitude Azimuth Distance (km) Brightness Sun altitude
Exits shadow 02:23:24 17° 165° (SSE) 5,559 11.2 -49.0°
Maximum altitude 02:29:22 20° 144° (SE) 5,276 11.2 -48.3°
Drops below altitude 10° 02:40:35 10° 106° (ESE) 5,690 11.8 -46.8°
Sets 02:46:10 0° 92° (E) 6,333 12.3 -46.0°
